www.pogodaiklimat.ru

Погода и климат >> Архив погоды >> Бермудские Острова >> Бермуда


ПОГОДА в Бермуде

  • Прогноз погоды в Бермуде
  • Монитор погоды в Бермуде

АРХИВ ПОГОДЫ в Бермуде

Время (UTC), дата Ветер
(напр.,м/с)
 
Видим.   Явления Облачность Т
(С)
Тd
(С)
f
(%)
Тe
(С)
Тes
(С)
Комфортность P
(гПа)
Po
(гПа)
Тmin
(С)
Tmax
(С)
R
(мм)
R24
(мм)
S
(см)
18 13.09 С 4 14 км 1/1 600 м
[Cu hum]
+29.2 +21.8 64 +37 +46 очень
душно
1020.5 1020.1 +25.1 +29.5
21 13.09 С 3 14 км 3/3 600 м
[Cu hum]
+28.8 +21.7 66 +37 +38 очень
душно
1020.1 1019.7
00 14.09 СВ 3 14 км 4/4 600 м
[Cu hum]
+27.4 +22.0 72 +35 +35 очень
душно
1020.8 1020.4 +25.1 +29.5
03 14.09 СВ 2 14 км 3/3 600 м
[Cu hum]
+27.0 +21.6 72 +34 +34 очень
душно
1021.2 1020.8
06 14.09 В 3 14 км 3/3 600 м
[Cu hum]
+26.3 +22.2 78 +34 +34 очень
душно
1020.9 1020.5 +25.1 +29.5
09 14.09 В 2 14 км 6/4 600 м
[Cu hum Cs]
+26.0 +21.9 78 +33 +33 очень
душно
1020.7 1020.3
12 14.09 В 4 14 км осадки на расстоянии 9/8 600 м
[Cu med, cong Cs]
+27.0 +22.5 76 +35 +36 очень
душно
1022.3 1021.9 +25.6 +29.5
15 14.09 В 6 14 км 5/4 600 м
[Cu med, cong Ci fib]
+29.6 +23.2 69 +40 +43 очень
душно
1023.1 1022.7
18 14.09 В 9 14 км в посл. час ливневой дождь 6/5 300 м
[Cu med, cong Ci ing]
+27.5 +24.4 83 +39 +39 очень
душно
1022.2 1021.8 +25.6 +31.0 0.0
21 14.09 В 9 14 км в посл. час ливневой дождь 9/9 600 м
[Cu Sc Ci ing]
+27.9 +22.5 72 +37 +37 очень
душно
1022.0 1021.6
00 15.09 В 8 14 км {ливн. осадки} 9/6 600 м
[Cu Sc Ac As Cs]
+27.3 +22.6 76 +36 +36 очень
душно
1022.9 1022.5 +25.6 +31.0 0.4
03 15.09 В 6 14 км 5/4 600 м
[Cu hum Cs]
+27.1 +22.6 76 +36 +36 очень
душно
1023.0 1022.6
06 15.09 В 6 14 км 8/6 600 м
[Cu Sc Cs]
+27.1 +22.6 76 +36 +36 очень
душно
1022.6 1022.2 +25.6 +31.0
09 15.09 В 7 14 км 6/5 600 м
[Cu Sc Cs]
+26.3 +22.5 80 +35 +35 очень
душно
1021.8 1021.4
12 15.09 В 8 14 км 8/5 600 м
[Cu Sc Ci sp]
+27.5 +21.2 69 +35 +35 очень
душно
1022.7 1022.3 +26.0 +31.0
15 15.09 ЮВ 7 14 км 4/1 600 м
[Cu hum Ac trans Ci fib]
+28.9 +21.6 65 +37 +40 очень
душно
1023.0 1022.6
18 15.09 ЮВ 6 14 км 3/1 600 м
[Cu hum Ci fib]
+29.2 +21.1 62 +37 +41 очень
душно
1021.7 1021.3 +26.0 +29.8
21 15.09 ЮВ 5 14 км 4/3 600 м
[Cu hum Ci]
+28.6 +21.3 65 +36 +37 очень
душно
1020.7 1020.3
00 16.09 ЮВ 4 14 км 9/1 600 м
[Cu hum Ci]
+27.2 +21.4 71 +35 +35 очень
душно
1021.5 1021.1 +26.0 +29.8
03 16.09 ЮВ 5 14 км 6/3 600 м
[Cu hum Cs]
+27.2 +22.3 75 +36 +36 очень
душно
1020.9 1020.5
06 16.09 ЮВ 4 14 км 5/4 600 м
[Cu hum Cs]
+27.1 +22.6 76 +36 +36 очень
душно
1019.6 1019.2 +26.0 +29.8
09 16.09 ЮВ 5 14 км 5/3 600 м
[Cu hum Cs]
+27.1 +22.6 76 +36 +36 очень
душно
1018.6 1018.2
12 16.09 Ю 4 14 км осадки на расстоянии 9/8 300 м
[Cu Sc Cs]
+27.5 +23.0 76 +37 +37 очень
душно
1018.8 1018.4 +27.0 +29.8
15 16.09 ЮВ 5 14 км 9/6 600 м
[Cu Sc Ac As Ci ing]
+29.0 +23.1 71 +39 +41 очень
душно
1019.2 1018.8
18 16.09 Ю 3 14 км 9/1 300 м
[Cu hum Cs]
+28.4 +24.1 78 +40 +48 очень
душно
1017.4 1017.0 +27.0 +29.6
21 16.09 З 3 14 км 10/3 600 м
[Cu med, cong Cs]
+28.7 +22.8 70 +38 +39 очень
душно
1015.4 1015.0
00 17.09 Ю 2 14 км осадки на расстоянии 10/1 600 м
[Cu med, cong Cs]
+27.4 +23.9 81 +38 +38 очень
душно
1016.5 1016.1 +27.0 +29.6
03 17.09 ЮЗ 3 14 км {ливн. осадки} 10/1 600 м
[Cu med, cong Ac trans Cs]
+27.7 +23.6 78 +38 +38 очень
душно
1015.7 1015.3
06 17.09 Ю 2 14 км {ливн. осадки} 10/1 300 м
[Cu med, cong Cc]
+27.7 +23.8 79 +38 +38 очень
душно
1014.2 1013.8 +26.8 +29.6 0.2
09 17.09 ЮЗ 5 14 км осадки на расстоянии 10/1 600 м
[Cu med, cong Ac trans Cc]
+27.7 +24.0 80 +38 +38 очень
душно
1013.1 1012.7
12 17.09 Ю 5 14 км осадки на расстоянии 9/3 300 м
[Cu med, cong Ac As Cs]
+27.9 +24.2 80 +39 +39 очень
душно
1013.3 1012.9 +26.8 +29.6
15 17.09 Ю 7 14 км в посл. час ливневой дождь 9/5 300 м
[Cu med, cong Ac trans Cs]
+28.9 +25.0 80 +42 +43 опасность
перегрева
1012.7 1012.3
18 17.09 ЮЗ 8 14 км осадки на расстоянии 8/3 300 м
[Cu Sc Ac trans Cs]
+29.1 +25.0 79 +42 +43 опасность
перегрева
1010.6 1010.2 +26.7 +30.0 1
21 17.09 Ю 3 14 км слаб. ливневой дождь 9/5 300 м
[Cu med, cong Ac inh Cs]
+29.0 +24.9 79 +42 +42 опасность
перегрева
1009.7 1009.3
00 18.09 СВ 8 6000 м слаб. ливневой дождь 10/10 200 м
[Frnb]
+24.6 +23.8 95 +33 +33 очень
душно
1008.7 1008.3 +24.4 +30.5 12
03 18.09 В 5 14 км {ливн. осадки} 10/8 300 м
[Cu Sc Cs]
+25.2 +23.8 92 +34 +34 очень
душно
1008.5 1008.1
06 18.09 В 3 14 км зарница {ливн. осадки} 9/1 300 м
[Cu hum Cs]
+25.3 +24.1 93 +35 +35 очень
душно
1006.8 1006.4 +24.2 +30.5 0.4
09 18.09 ЮВ 6 14 км гроза без осадков {ливн. осадки} 10/10 300 м
[Cb cap]
+26.8 +24.7 88 +38 +38 очень
душно
1004.0 1003.6
12 18.09 нст 1 14 км осадки на расстоянии {гроза, ливн. осадки} 10/10 300 м
[Sc As op Ci ing]
+26.9 +24.8 88 +38 +38 очень
душно
1003.5 1003.1 +23.7 +30.5 324
15 18.09 Ю 7 14 км в посл. час ливневой дождь 10/5 300 м
[Cu Sc Ac trans Cs]
+29.0 +25.5 81 +43 +43 опасность
перегрева
1000.9 1000.5
21 18.09 Ю 18 3600 м дымка {ливн. осадки} 10/10 1000 м
[Cu med, cong]
+27.7 +21.8 70 +36 +36 очень
душно
989.8 989.4
00 19.09 З 32 800 м слаб. ливневой дождь 10/10 300 м
[Frnb]
+22.9 +21.9 94 +31 +31 очень
душно
981.2 980.8 +29.8
03 19.09 З 15 8000 м {ливн. осадки} 10/5 300 м
[Frnb Ac As]
+25.7 +20.8 74 +32 +32 очень
душно
997.6 997.2
06 19.09 СЗ 10 14 км {ливн. осадки} 9/1 600 м
[Cu hum Ac trans Cs]
+25.4 +20.3 73 +31 +31 очень
душно
1002.1 1001.7 +22.0 +29.8 0.2
09 19.09 С 7 14 км в посл. час ливневой дождь 10/3 600 м
[Sc Ac und Cs]
+24.4 +20.4 78 +30 +30 очень
душно
1005.7 1005.3
12 19.09 С 8 14 км {ливн. осадки} 4/3 600 м
[Cu hum Ci fib]
+25.7 +19.0 67 +31 +31 очень
душно
1009.1 1008.7 +22.8 +29.8 1
15 19.09 С 6 14 км 3/1 600 м
[Cu hum Ci fib]
+26.3 +18.8 63 +31 +36 душно 1011.1 1010.7
18 19.09 С 7 14 км 8/4 600 м
[Cu hum Cs]
+25.7 +19.2 67 +31 +33 очень
душно
1012.1 1011.7 +22.0 +26.9
21 19.09 С 5 14 км 8/3 600 м
[Cu hum Ac trans Cs]
+24.8 +17.9 65 +29 +29 душно 1013.1 1012.7
00 20.09 С 4 14 км 8/3 600 м
[Cu hum Ac trans Cs]
+23.7 +18.4 72 +28 +28 душно 1014.7 1014.3 +23.1 +26.9
03 20.09 С 2 14 км 6/1 600 м
[Cu hum Ac cast Cs]
+23.5 +17.6 69 +27 +27 душно 1015.9 1015.5
06 20.09 СВ 1 14 км 8/3 600 м
[Cu hum Cs]
+23.0 +16.9 69 +28 +28 душно 1016.4 1016.0 +23.0 +26.9
09 20.09 С 2 14 км 5/3 600 м
[Cu hum Cs]
+23.2 +17.2 69 +28 +28 душно 1017.3 1016.9
12 20.09 С 3 14 км 6/4 1000 м
[Cu hum Ac trans Cs]
+24.1 +17.7 67 +28 +29 душно 1018.9 1018.5 +22.4 +26.9
15 20.09 С 3 14 км 6/4 600 м
[Cu hum Cs]
+25.7 +17.5 61 +30 +36 душно 1020.2 1019.8

 

Местоположение метеостанции Бермуда (Бермудские Острова): широта 32.37 долгота -64.66 высота над уровнем моря 3.4 м.

В архиве по умолчанию представлена погода в Бермуде за последнюю неделю. Архивные данные за месяц целиком и за предыдущие месяцы, начиная с января 2011 года, Вы можете получить, выбрав интересующий диапазон дат из раскрывающегося списка и нажав кнопку "Ввод!".


*Определитесь, кто Вы:
робот инопланетянин человек

Внимание! Время в таблицах - всемирное. Для получения местного времени необходимо прибавить поправку, которая равна -4 ч.

Смотрите также архив погоды в соседних городах и на ближайших метеорологических станциях:

Погода в Ярмуте (Новая Шотландия, Канада) (1281 км)
Погода в Уэстерн Хеад (Новая Шотландия, Канада) (1291 км)
Погода на Острове Бриер (Новая Шотландия, Канада) (1333 км)
Погода в Кеджимкюджике (Новая Шотландия, Канада) (1342 км)
Погода на Острове Сейбл (Новая Шотландия, Канада) (1348 км)
Погода на Острове Сейбл A (Новая Шотландия, Канада) (1351 км)
Погода в Галифаксе Osborne Head (Новая Шотландия, Канада) (1366 км)
Погода на Острове Махиас Сил (Новая Шотландия, Канада) (1366 км)
Погода в Меррите (Британская Колумбия, Канада) (1367 км)
Погода в Галифаксе Windsor Park (Новая Шотландия, Канада) (1370 км)

Пояснения к столбцам:

Ветер - указаны скорость ветра в м/с - средняя за 10 мин, порывы в срок и между сроками (в фигурных скобках) и направление, откуда дует ветер: С - северный, СВ - северо-восточный, В - восточный, ЮВ - юго-восточный, Ю - южный, ЮЗ - юго-западный, З - западный, СЗ - северо-западный.
Видимость - горизонтальная дальность видимости в метрах или километрах. При видимости от 1 до 10 км при отсутствии осадков обычно наблюдается дымка, при ухудшении видимости до 1 км и менее - туман. В сухую погоду видимость может ухудшаться дымом, пылью или мглою.
Явления - указаны атмосферные явления, наблюдавшиеся в срок или в последний час перед сроком; фигурными скобками обозначены явления, наблюдавшиеся между сроками (за 1-3 часа до срока); квадратными скобками обозначены град или гололедные отложения с указанием их диаметра в мм.
Облачность - указаны через наклонную черту общая и нижняя облачность в баллах и высота нижней границы облаков в метрах; квадратными скобками обозначены формы облаков: Ci - перистые, Cs - перисто-слоистые, Cc - перисто-кучевые, Ac - высококучевые, As - высокослоистые, Sc - слоисто-кучевые, Ns - слоисто-дождевые, Cu - кучевые, Cb - кучево-дождевые. Подробнее классификацию облаков см. в Атласе облаков (PDF).
T - Температура воздуха - температура, измеренная на высоте 2 м над землей.
Td - Температура точки росы - температура, при понижении до которой содержащийся в воздухе водяной пар достигнет насыщения.
f - Относительная влажность воздуха - влажноcть воздуха, измеренная на высоте 2 м над землей.
Te - Эффективная температура - температура, которую ощущает одетый по сезону человек в тени. Характеристика душности погоды. При расчете учитывается влияние влажности воздуха и скорости ветра на теплоощущения человека.
Tes - Эффективная температура на солнце - температура, которую ощущает человек, с поправкой на солнечный нагрев. Характеристика знойности погоды. Зависит от высоты солнца над горизонтом, облачности и скорости ветра. Ночью, в пасмурную погоду, а также при ветре 12 м/с и более поправка равна нулю.
P - Атмосферное давление - приведенное к уровню моря атмосферное давление.
Po - Атмосферное давление - измеренное на уровне метеостанции атмосферное давление.
Tmin - Минимальная температура - минимум температуры воздуха на высоте 2 м над землей.
Tmax - Максимальная температура - максимум температуры воздуха на высоте 2 м над землей.
R - Количество осадков - Количество выпавших осадков за период времени, мм. При наведении курсора мыши на число - период времени, за который выпало указанное количество осадков.
R24 - Количество осадков - Количество выпавших осадков за 24 часа, мм.
S - Снежный покров - Высота снежного покрова, см. При наведении курсора мыши на число - состояние снежного покрова и степень покрытия местности в баллах.